Regional Weather Roundup
Issued by NWS Nashville, TN

Home | Current Version | Previous Version | Text Only | Print | Product List | Glossary On
Versions: 1 2 3 4 5 6 7 8 9 10 11 12 13 14 15 16 17 18 19 20 21 22 23 24 25 26 27 28 29 30 31 32 33 34 35 36 37 38 39 40 41 42 43 44 45 46 47 48 49 50
000
ASUS44 KOHX 032310
RWROHX
MIDDLE TENNESSEE HOURLY WEATHER ROUNDUP
NATIONAL WEATHER SERVICE NASHVILLE TN
600 PM CDT TUE MAY 03 2016

NOTE: "FAIR" INDICATES FEW OR NO CLOUDS BELOW 12,000 FEET WITH
NO SIGNIFICANT WEATHER AND/OR OBSTRUCTIONS TO VISIBILITY.

* THESE REPORTS ARE NOT UNDER NWS QUALITY CONTROL AND MAY NOT
  REPORT WEATHER SUCH AS PRECIPITATION AND FOG.


TNZ005>011-023>034-057-059-062>066-078-080-040000
...NORTHERN MIDDLE TENNESSEE...

CITY           SKY/WX    TMP DP  RH WIND       PRES   REMARKS
CLARKSVILLE    CLOUDY    62  44  51 NW9       29.93F
CROSSVILLE     CLOUDY    60  45  57 NW9       29.91S
NASHVILLE      CLOUDY    63  43  48 N10       29.93S
SMYRNA         PTSUNNY   64  49  58 NW12      29.93S
SPARTA         CLOUDY    63  50  63 N7        29.90S
$$
TNZ056-058-060-061-075>077-079-093>097-040000
...SOUTHERN MIDDLE TENNESSEE...

CITY           SKY/WX    TMP DP  RH WIND       PRES   REMARKS
COLUMBIA       CLOUDY    63  52  67 NW7       29.92S
FAYETTEVILLE   PTSUNNY   66  48  52 NW10G16   29.90S
MCMINNVILLE    CLOUDY    63  48  59 NW6       29.91S
SHELBYVILLE    CLOUDY    64  50  59 NW12      29.92S
TULLAHOMA      PTSUNNY   63  48  59 N12       29.92S
WINCHESTER     CLOUDY    64  46  52 NW8       29.90S
$$


...KEY TO REMARKS...
VSB - VISIBILITY IN MILES
WCI - WIND CHILL INDEX
HX  - HEAT INDEX




USA.gov is the U.S. government's official web portal to all federal, state and local government web resources and services.